{"data":{"norad_id":60469,"epoch":"2026-05-25T04:10:41.951424Z","epoch_age_seconds":59266,"freshness":"FRESH","line1":"1 60469U 24149B   26145.17409666  .00013684  00000+0  40153-3 0  9999","line2":"2 60469  97.3686 225.7383 0000690  14.8355 345.2909 15.35280533 98584","mean_motion":15.35280533,"eccentricity":6.9e-5,"inclination_deg":97.3686,"raan_deg":225.7383,"arg_perigee_deg":14.8355,"mean_anomaly_deg":345.2909,"bstar":0.00040153,"rev_number":9858,"period_min":93.793933359279,"perigee_km":459.61552400633,"apogee_km":460.55919896821,"semimajor_km":6838.2243614873,"source":"CELESTRAK","updated_at":"2026-05-25T13:38:02.087535Z"}}